TimeCST,TemperatureF,Dew PointF,Humidity,Sea Level PressureIn,VisibilityMPH,Wind Direction,Wind SpeedMPH,Gust SpeedMPH,PrecipitationIn,Events,Conditions,WindDirDegrees,DateUTC
12:15 AM,21.2,17.6,86,30.03,10.0,South,4.6,-,N/A,,Mostly Cloudy,190,2014-01-16 06:15:00
12:35 AM,24.8,15.8,69,30.00,10.0,South,8.1,-,N/A,,Overcast,190,2014-01-16 06:35:00
12:55 AM,24.8,17.6,74,29.99,10.0,South,8.1,-,N/A,,Overcast,190,2014-01-16 06:55:00
1:15 AM,24.8,17.6,74,29.98,10.0,South,9.2,-,N/A,,Overcast,180,2014-01-16 07:15:00
1:35 AM,26.6,17.6,69,29.98,10.0,South,10.4,-,N/A,,Overcast,180,2014-01-16 07:35:00
1:55 AM,26.6,17.6,69,29.98,10.0,SSW,9.2,-,N/A,,Overcast,200,2014-01-16 07:55:00
2:15 AM,26.6,17.6,69,29.97,10.0,South,8.1,-,N/A,,Overcast,190,2014-01-16 08:15:00
2:35 AM,26.6,17.6,69,29.96,10.0,SSW,16.1,20.7,N/A,,Overcast,200,2014-01-16 08:35:00
2:55 AM,26.6,17.6,69,29.96,10.0,SSW,15.0,-,N/A,,Overcast,200,2014-01-16 08:55:00
3:15 AM,26.6,19.4,74,29.95,10.0,SSW,15.0,-,N/A,,Overcast,200,2014-01-16 09:15:00
3:35 AM,26.6,17.6,69,29.94,10.0,SSW,12.7,-,N/A,,Overcast,200,2014-01-16 09:35:00
3:55 AM,28.4,17.6,64,29.92,10.0,South,13.8,-,N/A,,Overcast,190,2014-01-16 09:55:00
4:15 AM,28.4,17.6,64,29.90,10.0,South,13.8,-,N/A,,Overcast,180,2014-01-16 10:15:00
4:35 AM,28.4,17.6,64,29.89,10.0,South,11.5,-,N/A,,Overcast,190,2014-01-16 10:35:00
4:55 AM,28.4,17.6,64,29.88,10.0,South,15.0,-,N/A,,Overcast,190,2014-01-16 10:55:00
5:15 AM,28.4,17.6,64,29.88,10.0,SSW,13.8,-,N/A,,Mostly Cloudy,200,2014-01-16 11:15:00
5:35 AM,28.4,19.4,69,29.87,8.0,South,12.7,21.9,N/A,,Overcast,180,2014-01-16 11:35:00
5:55 AM,28.4,19.4,69,29.87,5.0,SSW,18.4,21.9,N/A,,Overcast,200,2014-01-16 11:55:00
6:15 AM,26.6,21.2,80,29.85,2.5,South,13.8,-,N/A,,Overcast,190,2014-01-16 12:15:00
6:35 AM,26.6,23.0,86,29.85,3.0,SSW,17.3,23.0,N/A,,Overcast,200,2014-01-16 12:35:00
6:55 AM,26.6,23.0,86,29.85,5.0,SSW,16.1,-,N/A,,Overcast,200,2014-01-16 12:55:00
7:15 AM,26.6,24.8,93,29.84,8.0,SSW,12.7,-,N/A,,Overcast,200,2014-01-16 13:15:00
7:35 AM,28.4,21.2,74,29.84,10.0,SSW,12.7,-,N/A,,Overcast,200,2014-01-16 13:35:00
7:55 AM,28.4,23.0,80,29.84,9.0,South,10.4,-,N/A,,Overcast,190,2014-01-16 13:55:00
8:15 AM,28.4,21.2,74,29.84,10.0,South,15.0,18.4,N/A,,Overcast,190,2014-01-16 14:15:00
8:35 AM,30.2,21.2,69,29.81,10.0,South,17.3,20.7,N/A,,Overcast,180,2014-01-16 14:35:00
8:55 AM,30.2,21.2,69,29.81,5.0,SSW,17.3,-,N/A,,Mostly Cloudy,200,2014-01-16 14:55:00
9:15 AM,30.2,23.0,75,29.82,10.0,SSW,17.3,-,N/A,,Mostly Cloudy,210,2014-01-16 15:15:00
9:35 AM,30.2,24.8,80,29.82,10.0,SSW,15.0,-,N/A,,Overcast,200,2014-01-16 15:35:00
9:55 AM,30.2,23.0,75,29.82,10.0,SSW,12.7,23.0,N/A,,Overcast,200,2014-01-16 15:55:00
10:15 AM,32.0,24.8,75,29.81,10.0,SSW,18.4,23.0,N/A,,Overcast,200,2014-01-16 16:15:00
10:35 AM,33.8,24.8,70,29.79,10.0,SSW,16.1,-,N/A,,Mostly Cloudy,200,2014-01-16 16:35:00
10:55 AM,35.6,24.8,65,29.78,10.0,SSW,17.3,-,N/A,,Clear,210,2014-01-16 16:55:00
11:15 AM,35.6,26.6,70,29.76,10.0,SSW,16.1,23.0,N/A,,Clear,200,2014-01-16 17:15:00
11:35 AM,37.4,26.6,65,29.75,10.0,SSW,18.4,23.0,N/A,,Partly Cloudy,210,2014-01-16 17:35:00
11:55 AM,37.4,26.6,65,29.74,10.0,SW,18.4,-,N/A,,Mostly Cloudy,220,2014-01-16 17:55:00
12:15 PM,37.4,26.6,65,29.73,10.0,SSW,13.8,-,N/A,,Overcast,210,2014-01-16 18:15:00
12:35 PM,37.4,26.6,65,29.73,10.0,SW,12.7,-,N/A,,Overcast,220,2014-01-16 18:35:00
12:55 PM,39.2,26.6,61,29.73,10.0,SW,13.8,-,N/A,,Overcast,220,2014-01-16 18:55:00
1:15 PM,39.2,28.4,65,29.71,10.0,SW,15.0,19.6,N/A,,Partly Cloudy,220,2014-01-16 19:15:00
1:35 PM,41.0,28.4,61,29.72,10.0,SW,12.7,-,N/A,,Scattered Clouds,230,2014-01-16 19:35:00
1:55 PM,42.8,28.4,57,29.72,10.0,SW,9.2,-,N/A,,Mostly Cloudy,230,2014-01-16 19:55:00
2:15 PM,42.8,26.6,53,29.72,10.0,SW,10.4,-,N/A,,Overcast,220,2014-01-16 20:15:00
2:35 PM,42.8,28.4,57,29.73,10.0,SW,11.5,16.1,N/A,,Overcast,230,2014-01-16 20:35:00
2:55 PM,42.8,28.4,57,29.73,10.0,SW,8.1,-,N/A,,Overcast,230,2014-01-16 20:55:00
3:15 PM,42.8,28.4,57,29.74,10.0,WSW,11.5,-,N/A,,Overcast,250,2014-01-16 21:15:00
3:35 PM,44.6,26.6,49,29.75,10.0,West,8.1,17.3,N/A,,Overcast,260,2014-01-16 21:35:00
3:55 PM,42.8,28.4,57,29.75,10.0,WSW,8.1,-,N/A,,Overcast,250,2014-01-16 21:55:00
4:15 PM,42.8,28.4,57,29.75,10.0,WSW,8.1,-,N/A,,Overcast,250,2014-01-16 22:15:00
4:35 PM,42.8,28.4,57,29.76,10.0,WSW,8.1,-,N/A,,Overcast,250,2014-01-16 22:35:00
4:55 PM,42.8,28.4,57,29.77,10.0,WSW,6.9,-,N/A,,Overcast,240,2014-01-16 22:55:00
5:15 PM,39.2,30.2,70,29.81,10.0,West,10.4,20.7,N/A,,Overcast,280,2014-01-16 23:15:00
5:35 PM,37.4,32.0,81,29.81,10.0,West,8.1,-,N/A,,Overcast,280,2014-01-16 23:35:00
5:55 PM,37.4,32.0,81,29.81,10.0,West,6.9,-,N/A,,Overcast,270,2014-01-16 23:55:00
6:15 PM,37.4,30.2,75,29.82,10.0,West,6.9,-,N/A,,Mostly Cloudy,280,2014-01-17 00:15:00
6:35 PM,37.4,33.8,87,29.81,10.0,West,4.6,-,N/A,,Mostly Cloudy,260,2014-01-17 00:35:00
6:55 PM,37.4,32.0,81,29.82,10.0,WSW,4.6,-,N/A,,Mostly Cloudy,250,2014-01-17 00:55:00
7:15 PM,37.4,32.0,81,29.82,10.0,WSW,9.2,-,N/A,,Overcast,250,2014-01-17 01:15:00
7:35 PM,37.4,30.2,75,29.82,10.0,WSW,8.1,-,N/A,,Overcast,250,2014-01-17 01:35:00
7:55 PM,37.4,30.2,75,29.83,10.0,WSW,8.1,-,N/A,,Mostly Cloudy,240,2014-01-17 01:55:00
8:15 PM,33.8,28.4,81,29.82,10.0,SW,4.6,-,N/A,,Mostly Cloudy,220,2014-01-17 02:15:00
8:35 PM,33.8,30.2,87,29.82,10.0,SSW,3.5,-,N/A,,Overcast,210,2014-01-17 02:35:00
8:55 PM,33.8,30.2,87,29.82,10.0,SW,5.8,-,N/A,,Overcast,220,2014-01-17 02:55:00
9:15 PM,33.8,30.2,87,29.81,10.0,South,5.8,-,N/A,,Overcast,190,2014-01-17 03:15:00
9:35 PM,35.6,30.2,81,29.81,10.0,SW,5.8,-,N/A,,Overcast,220,2014-01-17 03:35:00
9:55 PM,33.8,30.2,87,29.81,10.0,South,4.6,-,N/A,,Overcast,190,2014-01-17 03:55:00
10:15 PM,33.8,30.2,87,29.80,10.0,South,4.6,-,N/A,,Mostly Cloudy,190,2014-01-17 04:15:00
10:35 PM,33.8,30.2,87,29.80,10.0,SW,4.6,-,N/A,,Overcast,230,2014-01-17 04:35:00
10:55 PM,33.8,30.2,87,29.80,10.0,SSW,6.9,-,N/A,,Overcast,210,2014-01-17 04:55:00
11:15 PM,33.8,28.4,81,29.78,10.0,SW,5.8,-,N/A,,Mostly Cloudy,220,2014-01-17 05:15:00
11:35 PM,35.6,28.4,75,29.80,9.0,West,12.7,27.6,N/A,,Mostly Cloudy,260,2014-01-17 05:35:00
11:55 PM,35.6,28.4,75,29.81,10.0,West,6.9,20.7,N/A,,Overcast,280,2014-01-17 05:55:00